AirNav   Air Wisconsin pilot careers
 
 1012 users online  

18V Platte Valley Airpark
Hudson, Colorado, USA

GOING TO HUDSON?


FAA INFORMATION EFFECTIVE 19 JULY 2018

Location

FAA Identifier: 18V
Lat/Long: 40-06-09.8000N / 104-42-04.3000W
40-06.163333N / 104-42.071667W
40.1027222 / -104.7011944
(estimated)
Elevation: 4965 ft. / 1513 m (estimated)
Variation: 11E (1985)
From city: 3 miles NW of HUDSON, CO
Time zone: UTC -6 (UTC -7 during Standard Time)
Zip code: 80621

Airport Operations

Airport use: Open to the public
Activation date: 03/1966
Control tower: no
ARTCC: DENVER CENTER
FSS: DENVER FLIGHT SERVICE STATION
NOTAMs facility: DEN (NOTAM-D service available)
Attendance: DAYLIGHT HOURS
RESIDENCE ON FIELD.
Wind indicator: yes
Segmented circle: no
Lights: ACTIVATE LIRL RY 15/33 - CTAF.

Airport Communications

CTAF: 122.9
WX ASOS at DEN (15 nm S): PHONE 303-342-0838
WX AWOS-3 at EIK (17 nm W): 133.825 (303-604-4339)

Nearby radio navigation aids

VOR radial/distance  VOR name  Freq  Var
DVVr336/13.0MILE HIGH VORTAC114.7008E
DENr346/17.5DENVER VOR/DME117.9008E
BJCr050/23.1JEFFCO VOR/DME115.4011E
GLLr183/25.0GILL VOR/DME114.2013E
FQFr341/25.0FALCON VORTAC116.3011E

Airport Services

Fuel available: 100LL
24 HR CREDIT CARD SVC AVBL.
Parking: hangars and tiedowns
Airframe service: MINOR
Powerplant service: MINOR
Bottled oxygen: NONE
Bulk oxygen: NONE

Runway Information

Runway 15/33

Dimensions: 4100 x 40 ft. / 1250 x 12 m
Surface: asphalt, in excellent condition
Runway edge lights: low intensity
RUNWAY 15  RUNWAY 33
Latitude: 40-06.300875N40-05.647133N
Longitude: 104-42.163087W104-41.941872W
Gradient: 0.1%0.1%
Traffic pattern: leftleft
Runway heading: 154 magnetic, 165 true334 magnetic, 345 true
Markings: basic, in good conditionbasic, in good condition
Obstructions: 5 ft. pole, 220 ft. from runway, 50 ft. right of centerline, 4:1 slope to clear14 ft. gnd, 545 ft. from runway, 24:1 slope to clear
10 FT ACCESS ROAD 50 FT FM THLD OB, +40 FT TREES 300 FT R OF CNTRLN 120 FT N OF THLD.

Runway 9/27

Dimensions: 2500 x 90 ft. / 762 x 27 m
Surface: turf/gravel, in fair condition
RUNWAY 9  RUNWAY 27
Latitude: 40-06.524833N40-06.420667N
Longitude: 104-42.363000W104-41.844000W
Traffic pattern: leftleft
Obstructions: 4 ft. gnd, 40 ft. from runway, 10:1 slope to clear17 ft. road, 64 ft. from runway, 3:1 slope to clear

Airport Ownership and Management from official FAA records

Ownership: Privately-owned
Owner: PLATTE VALLEY AIRPARK LIMITED
7507 WELD COUNTY RD 39
FORT LUPTON, CO 80621
Phone 303-536-0380
Manager: KEVIN KENNELLY
7507 WELD COUNT RD 39
FORT LUPTON, CO 80621
Phone 303-536-0380

Airport Operational Statistics

Aircraft based on the field: 76
Single engine airplanes: 76
    
Aircraft operations: avg 92/week *
50% transient general aviation
50% local general aviation
* for 12-month period ending 31 December 2015

Additional Remarks

DIRT TWY SOFT WHEN WET.
RY 09/27 HAS -3 FT DITCH 45 FT N OF RY EDGE FULL LENGTH.
RY 09 HAS MULTIPLE +15 FT TREES 175 FT L OF THLD CNTRLN; +15 FT STACK 100 FT FM THLD 150 L OF CNTRLN; +12 FT WINDSOCK 30 FT R OF THLD CNTRLN.
TWY INTERSECTS RY 09/27 MIDFIELD.
RY 15 HAS +6 FT POLE 240 FT FM THLD 50 FT R OF CNTRLN.
RY 27 HAS +20 FT POLE AND +15 FT TANK 185 FT FM THLD 90 FT L OF CNTRLN; +30 FT POLE 30 FT FM THLD 90 FT LEFT AND RIGHT OF CNTRLN; +15 FT HNGR 155 FT W OF THLD 75 FT N OF CNTRLN.

Instrument Procedures

There are no published instrument procedures at 18V.

Some nearby airports with instrument procedures:

KDEN - Denver International Airport (15 nm S)
KEIK - Erie Municipal Airport (17 nm W)
KGXY - Greeley-Weld County Airport (20 nm N)
KFTG - Front Range Airport (21 nm S)
KLMO - Vance Brand Airport (22 nm W)
 
Loc | Ops | Rwys | IFR | FBO | Links
Com | Nav | Svcs | Stats | Notes


 
Area around 18V (Platte Valley Airpark)
 
Road maps at: MapQuest Bing Google
 
Aerial photo
WARNING: Photo may not be current or correct
Aerial photo of 18V (Platte Valley Airpark)
Do you have a better or more recent aerial photo of Platte Valley Airpark that you would like to share? If so, please send us your photo.

 
Sectional chart

 
Airport distance calculator
Flying to Platte Valley Airpark? Find the distance to fly.

From to 18V

Sunrise and sunset
Times for 14-Aug-2018
 Local
(UTC-6)
 Zulu
(UTC)
Morning civil twilight05:4111:41
Sunrise06:1012:10
Sunset19:5701:57
Evening civil twilight20:2602:26

Current date and time
Zulu (UTC)  15-Aug-2018 01:59:01
Local (UTC-6)  14-Aug-2018 19:59:01
 
METAR
KDEN 
16nm S 
150153Z 16012KT 10SM TS SCT070CB BKN090 OVC220 16/14 A3016 RMK AO2 WSHFT 0040 LTG DSNT ALQDS RAE52 SLP157 OCNL LTGICCG SE AND NW TS SE AND NW MOV SE P0005 T01610144
KEIK 
17nm W 
150154Z AUTO 28006KT 10SM -RA SCT016 BKN080 OVC090 17/15 A3023 RMK AO2 LTG DSNT ALQS T01690152
KGXY 
19nm N 
150119Z AUTO 19004KT 10SM -RA FEW035 SCT047 BKN100 19/15 A3009 RMK AO2 TSB0058E13 P0000
KFTG 
20nm S 
150140Z 11007KT 10SM VCTSRA BKN025 BKN040 OVC090 18/15 A3018 RMK +TSRA OHD MOV S FRQ LTICCG OHD MOV S
KLMO 
22nm W 
150135Z AUTO 00000KT 10SM -RA SCT044 BKN075 OVC085 19/15 A3018 RMK AO2 T01920152
KBJC 
22nm SW 
150145Z 30006KT 15SM FEW025 OVC065 18/15 A3021
KBKF 
23nm S 
150145Z 08013KT 9SM VCTS SCT012 OVC070 14/14 A3019 RMK AO2A
K1V5 
24nm W 
AWOS 118.825 303-541-9540
No observation available
KBDU 
24nm W 
150154Z AUTO 28005KT 3SM TSRA SCT038 BKN070 OVC090 16/16 A3018 RMK AO2 P0007 LTG DSNT NE E AND SW
KFNL 
25nm NW 
150145Z AUTO 28004KT 10SM -RA SCT034 BKN041 BKN110 17/16 A3015 RMK AO2 LTG DSNT S TSE0058B00E16B22E39 PNO $
TAF
KDEN 
16nm S 
150028Z 1500/1606 08014G25KT P6SM -TSRA BKN070CB OVC090 TEMPO 1500/1501 VRB25G40KT TSRAGR BKN045CB OVC070 FM150130 13012G20KT P6SM -TSRA BKN060CB OVC090 FM150300 35012G20KT P6SM VCSH SCT070 BKN100 FM150500 26010KT P6SM SCT120 BKN220 FM151000 21008KT P6SM FEW120 SCT220 FM151700 10007KT P6SM FEW090 SCT150 FM152100 05008KT P6SM VCTS SCT080CB BKN130
NOTAMs
Click for the latest NOTAMs
NOTAMs are issued by the DoD/FAA and will open in a separate window not controlled by AirNav.

 

 
 

FBO, Fuel Providers, and Aircraft Ground Support

  
 Business Name 
 
 Contact 
 
 Services / Description 
 
Fuel Prices
 
Comments
  
Platte Valley Fuel 303-986-6121 Aviation fuel

More info about Platte Valley Fuel
Phillips 66
100LL
SS $4.30 
 Updated 04-Aug-2018
 
   write
SS=Self service
Update Fuel Prices
 

Would you like to see your business listed on this page?

 If your business provides an interesting product or service to pilots, flight crews, aircraft, or users of the Platte Valley Airpark, you should consider listing it here.  To start the listing process, click on the button below
 
Add a business
 

Other Pages about Platte Valley Airpark

Update a link
 
Copyright © AirNav, LLC. All rights reserved. Privacy Policy  Contact